Terminal Aerodrome Forecast
Issued by NWS Denver/Boulder, CO

Home | Current Version | Previous Version | Text Only | Print | Product List | Glossary On
Versions: 1 2 3 4 5 6 7 8 9 10 11 12 13 14 15 16 17 18 19 20 21 22 23 24 25 26 27 28 29 30 31 32 33 34 35 36 37 38 39 40 41 42 43 44 45 46 47 48 49 50
000
FTUS45 KBOU 270532
TAFDEN
TAF
KDEN 270532Z 2706/2812 15015KT P6SM FEW200
     FM270900 18014KT P6SM FEW200
     FM271200 21012KT P6SM FEW200
     FM271500 25011KT P6SM FEW120 SCT200
     FM271900 29015G22KT P6SM SCT120
     FM280100 33010KT P6SM SCT120 SCT200
     FM280600 VRB06KT P6SM FEW200=

USA.gov is the U.S. government's official web portal to all federal, state and local government web resources and services.